[[{"header":{"parameterUnit":"m.s-1","parameterCategory":1,"la1":30.2991,"la2":30.254,"lo1":-89.0895,"lo2":-89.0444,"dy":0.0017,"dx":0.0017,"nx":28,"ny":28,"refTime":"2026-02-26T09:00:00:Z","depth":0,"parameterNumber":2,"parameterNumberName":"U-component_of_WINDS"},"data":[0,0,0,0,0,0,0,0,0,0,0,0,0,0,0,0,0,0,0,0,0,0,0,0,0,0,0,0,0,0,0,0,0,0,0,0,0,0,0,0,0,0,0,0,0,0,0,0,0,0,0,0,0,0,0,0,0,0,-0.1463,-0.1464,0,-0.1515,-0.1516,-0.1517,-0.1543,-0.1543,-0.1543,-0.1543,-0.1598,-0.16,-0.1601,0,0,0,0,0,0,0,0,0,0,0,0,0,-0.1388,-0.1389,-0.1463,-0.1464,-0.1464,-0.1515,-0.1516,-0.1517,-0.1543,-0.1543,-0.1543,-0.1543,-0.1598,-0.16,-0.1601,0,0,0,0,0,0,0,0,0,0,0,0,0,-0.1428,-0.1389,-0.1463,-0.1484,-0.1486,-0.1515,-0.1516,-0.1517,-0.1543,-0.1543,-0.1543,-0.1543,-0.1597,-0.1599,-0.1601,-0.1614,0,0,-0.1608,-0.1609,0,0,0,0,0,0,0,0,-0.1426,-0.1431,-0.148,-0.1482,-0.1485,-0.1523,-0.151,-0.155,-0.1543,-0.1521,-0.1543,-0.1543,-0.1573,-0.1577,-0.1587,-0.1617,-0.1619,-0.1608,-0.161,-0.1611,-0.1611,0,0,0,0,0,0,0,-0.1423,-0.1429,-0.1484,-0.1481,-0.1484,-0.1491,-0.1497,-0.1517,-0.1547,-0.1523,-0.1525,-0.1531,-0.1575,-0.1585,-0.1589,-0.162,-0.1608,-0.161,-0.1612,-0.1612,-0.1664,-0.1664,0,0,0,0,0,0,-0.1417,-0.1426,-0.1482,-0.1485,-0.1455,-0.1492,-0.1499,-0.1511,-0.1546,-0.1552,-0.1531,-0.1532,-0.1581,-0.1586,-0.1591,-0.1609,-0.1611,-0.1613,-0.1614,-0.1664,-0.1664,-0.1664,0,0,0,0,0,0,-0.1415,-0.1421,-0.148,-0.1456,-0.1464,-0.1493,-0.1507,-0.1512,-0.1522,-0.1552,-0.1558,-0.1536,-0.1581,-0.1588,-0.1608,-0.1611,-0.1614,-0.1616,-0.1664,-0.1664,-0.1664,-0.1644,0,0,0,0,0,0,-0.1413,-0.1421,-0.1425,-0.1456,-0.1466,-0.1496,-0.1507,-0.1513,-0.1526,-0.1527,-0.1559,-0.1564,-0.1582,-0.1605,-0.161,-0.1614,-0.1617,-0.1664,-0.1664,-0.1664,-0.1645,-0.1643,-0.1642,0,0,0,0,0,-0.141,-0.1418,-0.1425,-0.1432,-0.1472,-0.1496,-0.1502,-0.1522,-0.1526,-0.1531,-0.155,-0.1563,-0.161,-0.1607,-0.1613,-0.1617,-0.1664,-0.1664,-0.1664,-0.1645,-0.1644,-0.1642,0,0,0,0,0,0,-0.1387,-0.1422,-0.1431,-0.1449,-0.1469,-0.1501,-0.1508,-0.152,-0.154,-0.1541,-0.1566,-0.1573,-0.1591,-0.1606,-0.1603,-0.1632,-0.1638,-0.1639,-0.1621,-0.162,-0.1619,-0.1615,-0.1619,0,0,0,0,0,-0.1384,-0.14,-0.143,-0.1444,-0.1453,-0.1479,-0.149,-0.1504,-0.1526,-0.1535,-0.1556,-0.1577,-0.1597,-0.1609,-0.1629,-0.1647,-0.1654,-0.1653,-0.1652,-0.1651,-0.1652,-0.1662,-0.1662,-0.1664,-0.1664,-0.1664,0,0,-0.1379,-0.14,-0.1408,-0.144,-0.1457,-0.1474,-0.1486,-0.1503,-0.1516,-0.1538,-0.1559,-0.1575,-0.16,-0.162,-0.1629,-0.1633,-0.1653,-0.1651,-0.165,-0.1651,-0.1663,-0.1662,-0.1662,-0.1664,-0.1664,-0.1664,0,0,-0.1377,-0.1394,-0.1407,-0.1424,-0.145,-0.1467,-0.147,-0.1499,-0.1511,-0.1532,-0.1549,-0.1564,-0.1597,-0.1615,-0.1628,-0.1633,-0.1645,-0.1639,-0.1633,-0.1643,-0.1643,-0.1643,-0.1645,-0.1645,-0.164,-0.164,-0.164,0,-0.1366,-0.1392,-0.1412,-0.1428,-0.1442,-0.1462,-0.1476,-0.1491,-0.1522,-0.1532,-0.1535,-0.1577,-0.1596,-0.162,-0.1621,-0.1631,-0.1635,-0.1635,-0.1641,-0.1642,-0.1642,-0.1644,-0.1645,-0.1639,-0.1639,-0.1639,-0.1639,0,-0.1378,-0.1395,-0.1403,-0.1431,-0.1446,-0.1461,-0.1484,-0.1496,-0.1509,-0.1526,-0.1547,-0.157,-0.1595,-0.1602,-0.1614,-0.1627,-0.1629,-0.1637,-0.1643,-0.164,-0.1643,-0.1644,-0.1637,-0.1638,-0.1638,-0.1638,0,0,-0.1363,-0.1403,-0.1406,-0.1419,-0.1449,-0.1463,-0.1479,-0.1503,-0.1513,-0.1533,-0.1548,-0.1575,-0.1583,-0.1598,-0.1613,-0.1622,-0.1624,-0.1629,-0.1629,-0.1627,-0.164,-0.1634,-0.1635,-0.1632,-0.1633,-0.1633,-0.1638,0,-0.1366,-0.1394,-0.1414,-0.1435,-0.1452,-0.1471,-0.1485,-0.1505,-0.1521,-0.1538,-0.1556,-0.1575,-0.1583,-0.1592,-0.1602,-0.1622,-0.1627,-0.1622,-0.1646,-0.1647,-0.1639,-0.1636,-0.163,-0.1634,-0.1639,-0.1639,-0.164,0,-0.1372,-0.1392,-0.1415,-0.1443,-0.1451,-0.1463,-0.1486,-0.1502,-0.1525,-0.1536,-0.1553,-0.1568,-0.1586,-0.1591,-0.1616,-0.1612,-0.1623,-0.1635,-0.1635,-0.1639,-0.1643,-0.164,-0.1636,-0.1636,-0.1641,-0.1641,-0.1641,0,-0.136,-0.1392,-0.141,-0.1421,-0.1454,-0.1462,-0.1476,-0.15,-0.1513,-0.1533,-0.1542,-0.1565,-0.1577,-0.1595,-0.1616,-0.1617,-0.1639,-0.1646,-0.1649,-0.1649,-0.1653,-0.1653,-0.1652,-0.166,-0.166,-0.166,-0.166,0,-0.1361,-0.1374,-0.1404,-0.1415,-0.1431,-0.1453,-0.1468,-0.1484,-0.1505,-0.152,-0.1538,-0.1552,-0.1579,-0.1596,-0.1613,-0.1632,-0.1637,-0.1647,-0.1651,-0.1645,-0.1644,-0.1653,-0.1654,-0.166,-0.166,-0.166,-0.166,0,-0.1349,-0.137,-0.1391,-0.142,-0.1428,-0.1438,-0.1464,-0.1476,-0.1493,-0.1511,-0.1517,-0.1544,-0.1565,-0.1588,-0.1617,-0.1628,-0.1646,-0.1652,-0.1638,-0.164,-0.1643,-0.1643,-0.1648,-0.165,-0.1657,-0.1657,-0.1656,0,-0.1348,-0.1359,-0.1389,-0.14,-0.1414,-0.1431,-0.1445,-0.1467,-0.148,-0.1508,-0.1516,-0.1539,-0.1558,-0.1591,-0.1613,-0.1636,-0.1643,-0.1643,-0.1646,-0.164,-0.1643,-0.1642,-0.1644,-0.1642,-0.1642,-0.1642,-0.1641,0,-0.1345,-0.1354,-0.1372,-0.1394,-0.1409,-0.1428,-0.1447,-0.1455,-0.1481,-0.1495,-0.1517,-0.1532,-0.1561,-0.1583,-0.1608,-0.1624,-0.1637,-0.164,-0.1642,-0.1637,-0.1628,-0.1633,-0.1635,-0.164,-0.164,-0.164,-0.164,-0.164,-0.1339,-0.1349,-0.1372,-0.1392,-0.1408,-0.1426,-0.1438,-0.1456,-0.1475,-0.15,-0.1512,-0.1534,-0.1557,-0.1592,-0.1607,-0.1625,-0.1629,-0.1632,-0.1633,-0.1633,-0.1632,-0.1625,-0.163,-0.163,-0.163,-0.163,-0.163,0,-0.1336,-0.1352,-0.137,-0.1396,-0.1411,-0.1421,-0.1443,-0.1456,-0.1474,-0.1495,-0.1513,-0.1538,-0.156,-0.1584,-0.1607,-0.1617,-0.1623,-0.1622,-0.1622,-0.1625,-0.1627,-0.1623,-0.1616,-0.1616,-0.1616,-0.1616,-0.1616,-0.1616,-0.1337,-0.1355,-0.1367,-0.1394,-0.141,-0.1431,-0.1442,-0.1459,-0.1475,-0.1502,-0.152,-0.1535,-0.1557,-0.1582,-0.1603,-0.161,-0.1617,-0.1614,-0.1623,-0.1624,-0.1625,-0.1626,-0.1622,-0.1616,-0.1616,-0.1619,-0.1619,-0.1619]},{"header":{"parameterUnit":"m.s-1","parameterCategory":1,"la1":30.2991,"la2":30.254,"lo1":-89.0895,"lo2":-89.0444,"dy":0.0017,"dx":0.0017,"nx":28,"ny":28,"refTime":"2026-02-26T09:00:00:Z","depth":0,"parameterNumber":3,"parameterNumberName":"V-component_of_WINDS"},"data":[0,0,0,0,0,0,0,0,0,0,0,0,0,0,0,0,0,0,0,0,0,0,0,0,0,0,0,0,0,0,0,0,0,0,0,0,0,0,0,0,0,0,0,0,0,0,0,0,0,0,0,0,0,0,0,0,0,0,4.8299,4.8299,0,4.8372,4.8373,4.8373,4.8356,4.8355,4.8354,4.8352,4.8424,4.8427,4.843,0,0,0,0,0,0,0,0,0,0,0,0,0,4.8142,4.8145,4.8299,4.83,4.83,4.8372,4.8373,4.8374,4.8357,4.8355,4.8353,4.8352,4.8423,4.8426,4.843,0,0,0,0,0,0,0,0,0,0,0,0,0,4.8212,4.8146,4.8298,4.8301,4.8302,4.8371,4.8373,4.8374,4.8357,4.8355,4.8353,4.8351,4.8421,4.8426,4.8431,4.8502,0,0,4.8445,4.8447,0,0,0,0,0,0,0,0,4.8208,4.8217,4.8299,4.8301,4.8302,4.8353,4.8343,4.8417,4.8358,4.8336,4.8352,4.835,4.8402,4.8408,4.8426,4.8505,4.8508,4.8446,4.8449,4.8451,4.8452,0,0,0,0,0,0,0,4.8203,4.8214,4.8327,4.8301,4.8302,4.8297,4.8305,4.8357,4.8379,4.8338,4.8337,4.8346,4.8402,4.8421,4.8427,4.8509,4.8446,4.845,4.8453,4.8455,4.8651,4.8653,0,0,0,0,0,0,4.8197,4.821,4.8325,4.833,4.8249,4.8302,4.831,4.8339,4.8379,4.8383,4.8347,4.8345,4.8414,4.8422,4.843,4.8517,4.8451,4.8455,4.8458,4.8648,4.8651,4.8654,0,0,0,0,0,0,4.8194,4.8208,4.8322,4.827,4.8284,4.8307,4.8339,4.8341,4.8361,4.8386,4.839,4.8364,4.8413,4.8423,4.8484,4.8519,4.8457,4.8462,4.8646,4.8649,4.8652,4.869,0,0,0,0,0,0,4.819,4.8207,4.8235,4.8271,4.8287,4.8376,4.8341,4.8344,4.8369,4.8367,4.8402,4.8406,4.8412,4.8477,4.8489,4.8524,4.8465,4.8643,4.8647,4.8651,4.8686,4.8694,4.8702,0,0,0,0,0,4.8184,4.8241,4.8236,4.825,4.8322,4.8378,4.8388,4.8394,4.8372,4.84,4.8417,4.8405,4.8513,4.8484,4.8497,4.8534,4.864,4.8646,4.8651,4.8682,4.8693,4.8701,0,0,0,0,0,0,4.8207,4.8246,4.8241,4.8311,4.8342,4.8376,4.8411,4.8405,4.8441,4.8437,4.8443,4.8451,4.8514,4.8529,4.8496,4.8605,4.8573,4.8582,4.8593,4.8603,4.861,4.8606,4.8469,0,0,0,0,0,4.8221,4.8264,4.8295,4.8354,4.837,4.8388,4.8413,4.8415,4.8447,4.8459,4.848,4.851,4.8551,4.8577,4.8616,4.8688,4.8695,4.872,4.8727,4.8734,4.8741,4.8781,4.8792,4.8671,4.8671,4.8671,0,0,4.8249,4.8275,4.8302,4.836,4.8384,4.8428,4.8399,4.8447,4.8479,4.8466,4.8526,4.8542,4.8576,4.8643,4.8673,4.8658,4.8776,4.8741,4.8746,4.8749,4.8788,4.8799,4.8809,4.8675,4.8674,4.8673,0,0,4.8323,4.8347,4.84,4.8425,4.8462,4.8474,4.8486,4.8521,4.8532,4.8592,4.8584,4.8622,4.8692,4.8717,4.8738,4.8823,4.8814,4.8835,4.8877,4.8916,4.8925,4.8934,4.8965,4.8976,4.8842,4.8842,4.8842,0,4.8353,4.842,4.8427,4.8477,4.8502,4.8494,4.8547,4.857,4.8618,4.8635,4.8618,4.8706,4.8728,4.8801,4.8822,4.884,4.8854,4.8831,4.8923,4.8932,4.894,4.897,4.8981,4.8844,4.8844,4.8844,4.8844,0,4.8456,4.8503,4.854,4.8589,4.8618,4.8669,4.8683,4.8712,4.8712,4.8725,4.8787,4.8813,4.8858,4.8875,4.8875,4.8949,4.8938,4.8922,4.889,4.8954,4.8982,4.8993,4.8848,4.8847,4.8846,4.8846,0,0,4.8547,4.8599,4.8613,4.8635,4.8676,4.8711,4.8761,4.8807,4.8832,4.8864,4.8907,4.8967,4.8952,4.8977,4.8979,4.9014,4.908,4.8993,4.8994,4.9009,4.9164,4.9177,4.919,4.9074,4.9076,4.9078,4.9161,0,4.8625,4.8716,4.8724,4.8805,4.8848,4.8841,4.8884,4.8914,4.8927,4.8966,4.898,4.9023,4.9,4.9015,4.9048,4.9065,4.9111,4.9059,4.9113,4.9115,4.9107,4.9204,4.9218,4.9296,4.9172,4.9174,4.9176,0,4.8729,4.8767,4.8853,4.8889,4.8907,4.8947,4.8989,4.9026,4.9059,4.9066,4.9094,4.9092,4.9144,4.911,4.918,4.9145,4.9167,4.9179,4.9182,4.9188,4.915,4.9214,4.932,4.9333,4.9193,4.9191,4.919,0,4.8789,4.8861,4.8922,4.8941,4.8983,4.9012,4.903,4.9061,4.9088,4.9125,4.9142,4.9183,4.9206,4.9238,4.9247,4.9221,4.9318,4.9284,4.9326,4.9326,4.9347,4.9346,4.946,4.936,4.936,4.9359,4.9359,0,4.8876,4.8929,4.8949,4.8987,4.9046,4.9054,4.9112,4.9129,4.9157,4.9197,4.9192,4.923,4.9239,4.9278,4.9285,4.9344,4.9353,4.9361,4.9362,4.9362,4.9361,4.9378,4.9373,4.9362,4.9362,4.9361,4.9361,0,4.8953,4.8968,4.9035,4.907,4.908,4.9122,4.9152,4.9188,4.9201,4.9252,4.9265,4.9285,4.9331,4.9343,4.9398,4.9402,4.9471,4.9467,4.9461,4.9461,4.9502,4.9499,4.9632,4.965,4.9537,4.9538,4.9539,0,4.9008,4.9049,4.909,4.9117,4.9138,4.9182,4.9209,4.9219,4.9248,4.9289,4.932,4.9365,4.9403,4.9477,4.9496,4.9538,4.9535,4.9579,4.9541,4.954,4.9537,4.9535,4.954,4.9586,4.9587,4.9588,4.9589,0,4.9106,4.9112,4.9153,4.9197,4.9231,4.9265,4.9298,4.9321,4.9334,4.9367,4.9415,4.9444,4.9501,4.9546,4.9589,4.9607,4.9601,4.9601,4.9613,4.9613,4.9609,4.9613,4.9482,4.9598,4.9597,4.9596,4.9596,4.9595,4.9174,4.9211,4.9246,4.9292,4.9318,4.9349,4.9385,4.9403,4.9444,4.9492,4.9494,4.9546,4.9578,4.9635,4.9656,4.9697,4.9684,4.97,4.9705,4.971,4.9714,4.9601,4.9704,4.9704,4.9704,4.9704,4.9703,0,4.9273,4.9295,4.9337,4.9385,4.9421,4.9412,4.9449,4.9479,4.9526,4.9557,4.9594,4.965,4.9694,4.9717,4.9761,4.9789,4.9787,4.98,4.9799,4.9804,4.9722,4.9708,4.9801,4.9801,4.9801,4.9801,4.9801,4.9801,4.9328,4.939,4.94,4.9475,4.9496,4.9548,4.957,4.9599,4.9624,4.9687,4.9724,4.9739,4.9767,4.9813,4.9853,4.9859,4.9876,4.9891,4.9895,4.9819,4.9809,4.9799,4.9786,4.9894,4.9894,4.9973,4.9973,4.9974]}]]